Time,TemperatureF,DewpointF,PressureIn,WindDirection,WindDirectionDegrees,WindSpeedMPH,WindSpeedGustMPH,Humidity,HourlyPrecipIn,Conditions,Clouds,dailyrainin,SoftwareType,DateUTC
2013-03-04 00:01:00,35.0,35.0,-100.00,East,85,1.0,5.0,99,-99.99,,,-99.99,,2013-03-04 07:01:00,
2013-03-04 00:11:00,35.0,35.0,-100.00,NNE,25,1.0,6.0,99,-99.99,,,-99.99,,2013-03-04 07:11:00,
2013-03-04 00:21:00,35.0,35.0,-100.00,East,80,2.0,6.0,99,-99.99,,,-99.99,,2013-03-04 07:21:00,
2013-03-04 00:32:00,36.0,36.0,-100.00,South,170,2.0,8.0,99,-99.99,,,-99.99,,2013-03-04 07:32:00,
2013-03-04 00:41:00,35.0,35.0,-100.00,NE,45,2.0,4.0,99,-99.99,,,-99.99,,2013-03-04 07:41:00,
2013-03-04 00:51:00,36.0,36.0,-100.00,South,170,4.0,10.0,99,-99.99,,,-99.99,,2013-03-04 07:51:00,
2013-03-04 01:01:00,36.0,36.0,-100.00,SSW,195,3.0,9.0,99,-99.99,,,-99.99,,2013-03-04 08:01:00,
2013-03-04 01:11:00,36.0,36.0,-100.00,NNE,30,1.0,11.0,99,-99.99,,,-99.99,,2013-03-04 08:11:00,
2013-03-04 01:21:00,36.0,36.0,-100.00,NNE,15,1.0,6.0,99,-99.99,,,-99.99,,2013-03-04 08:21:00,
2013-03-04 01:31:00,36.0,36.0,-100.00,SE,145,1.0,5.0,99,-99.99,,,-99.99,,2013-03-04 08:31:00,
2013-03-04 01:41:00,36.0,36.0,-100.00,South,170,3.0,7.0,99,-99.99,,,-99.99,,2013-03-04 08:41:00,
2013-03-04 01:52:00,36.0,36.0,-100.00,SSW,205,3.0,9.0,99,-99.99,,,-99.99,,2013-03-04 08:52:00,
2013-03-04 02:01:00,36.0,36.0,-100.00,East,90,2.0,7.0,99,-99.99,,,-99.99,,2013-03-04 09:01:00,
2013-03-04 02:11:00,36.0,36.0,-100.00,ENE,75,3.0,9.0,99,-99.99,,,-99.99,,2013-03-04 09:11:00,
2013-03-04 02:21:00,36.0,36.0,-100.00,SW,220,4.0,9.0,99,-99.99,,,-99.99,,2013-03-04 09:21:00,
2013-03-04 02:31:00,36.0,36.0,-100.00,ESE,110,2.0,6.0,99,-99.99,,,-99.99,,2013-03-04 09:31:00,
2013-03-04 02:42:00,36.0,36.0,-100.00,SE,130,2.0,8.0,99,-99.99,,,-99.99,,2013-03-04 09:42:00,
2013-03-04 02:51:00,36.0,36.0,-100.00,ENE,65,1.0,6.0,99,-99.99,,,-99.99,,2013-03-04 09:51:00,
2013-03-04 03:01:00,36.0,36.0,-100.00,NE,55,3.0,4.0,99,-99.99,,,-99.99,,2013-03-04 10:01:00,
2013-03-04 03:11:00,36.0,36.0,-100.00,ENE,60,1.0,3.0,100,-99.99,,,-99.99,,2013-03-04 10:11:00,
2013-03-04 03:21:00,36.0,36.0,-100.00,ENE,70,2.0,4.0,99,-99.99,,,-99.99,,2013-03-04 10:21:00,
2013-03-04 03:31:00,35.0,35.0,-100.00,ENE,65,1.0,3.0,99,-99.99,,,-99.99,,2013-03-04 10:31:00,
2013-03-04 03:41:00,35.0,35.0,-100.00,SE,140,1.0,4.0,99,-99.99,,,-99.99,,2013-03-04 10:41:00,
2013-03-04 03:52:00,36.0,36.0,-100.00,ENE,60,1.0,5.0,99,-99.99,,,-99.99,,2013-03-04 10:52:00,
2013-03-04 04:01:00,35.0,35.0,-100.00,WSW,250,0.0,5.0,99,-99.99,,,-99.99,,2013-03-04 11:01:00,
2013-03-04 04:11:00,35.0,35.0,-100.00,NE,35,0.0,1.0,99,-99.99,,,-99.99,,2013-03-04 11:11:00,
2013-03-04 04:21:00,35.0,35.0,-100.00,NE,35,2.0,4.0,99,-99.99,,,-99.99,,2013-03-04 11:21:00,
2013-03-04 04:31:00,35.0,35.0,-100.00,ENE,70,4.0,7.0,99,-99.99,,,-99.99,,2013-03-04 11:31:00,
2013-03-04 04:41:00,36.0,36.0,-100.00,SSE,160,2.0,5.0,100,-99.99,,,-99.99,,2013-03-04 11:41:00,
2013-03-04 04:52:00,36.0,36.0,-100.00,East,85,1.0,6.0,99,-99.99,,,-99.99,,2013-03-04 11:52:00,
2013-03-04 05:01:00,35.0,35.0,-100.00,SSE,165,0.0,2.0,99,-99.99,,,-99.99,,2013-03-04 12:01:00,
2013-03-04 05:11:00,35.0,35.0,-100.00,ENE,60,2.0,4.0,99,-99.99,,,-99.99,,2013-03-04 12:11:00,
2013-03-04 05:22:00,35.0,35.0,-100.00,NNE,25,2.0,5.0,99,-99.99,,,-99.99,,2013-03-04 12:22:00,
2013-03-04 05:32:00,34.0,34.0,-100.00,East,90,0.0,3.0,99,-99.99,,,-99.99,,2013-03-04 12:32:00,
2013-03-04 05:42:00,35.0,35.0,-100.00,NE,35,1.0,3.0,99,-99.99,,,-99.99,,2013-03-04 12:42:00,
2013-03-04 05:52:00,34.0,34.0,-100.00,NE,50,2.0,4.0,99,-99.99,,,-99.99,,2013-03-04 12:52:00,
2013-03-04 06:02:00,34.0,34.0,-100.00,South,180,0.0,2.0,99,-99.99,,,-99.99,,2013-03-04 13:02:00,
2013-03-04 06:11:00,34.0,34.0,-100.00,ENE,70,1.0,3.0,99,-99.99,,,-99.99,,2013-03-04 13:11:00,
2013-03-04 06:21:00,35.0,35.0,-100.00,NNW,340,2.0,2.0,99,-99.99,,,-99.99,,2013-03-04 13:21:00,
2013-03-04 06:31:00,34.0,34.0,-100.00,NNE,20,1.0,1.0,99,-99.99,,,-99.99,,2013-03-04 13:31:00,
2013-03-04 06:41:00,34.0,34.0,-100.00,NW,325,0.0,1.0,99,-99.99,,,-99.99,,2013-03-04 13:41:00,
2013-03-04 06:51:00,34.0,34.0,-100.00,SW,235,1.0,2.0,99,-99.99,,,-99.99,,2013-03-04 13:51:00,
2013-03-04 07:01:00,34.0,34.0,-100.00,WNW,285,0.0,2.0,99,-99.99,,,-99.99,,2013-03-04 14:01:00,
2013-03-04 07:11:00,34.0,34.0,-100.00,NNW,335,1.0,2.0,99,-99.99,,,-99.99,,2013-03-04 14:11:00,
2013-03-04 07:22:00,34.0,34.0,-100.00,SW,230,2.0,2.0,99,-99.99,,,-99.99,,2013-03-04 14:22:00,
2013-03-04 07:32:00,34.0,34.0,-100.00,NW,310,0.0,1.0,99,-99.99,,,-99.99,,2013-03-04 14:32:00,
2013-03-04 07:41:00,34.0,34.0,-100.00,NE,45,1.0,2.0,99,-99.99,,,-99.99,,2013-03-04 14:41:00,
2013-03-04 07:52:00,34.0,34.0,-100.00,North,0,0.0,4.0,100,-99.99,,,-99.99,,2013-03-04 14:52:00,
2013-03-04 08:01:00,34.0,34.0,-100.00,SW,235,1.0,2.0,99,-99.99,,,-99.99,,2013-03-04 15:01:00,
2013-03-04 08:11:00,34.0,34.0,-100.00,West,275,1.0,2.0,99,-99.99,,,-99.99,,2013-03-04 15:11:00,
2013-03-04 08:21:00,34.0,34.0,-100.00,WNW,290,0.0,1.0,99,-99.99,,,-99.99,,2013-03-04 15:21:00,
2013-03-04 08:31:00,36.0,36.0,-100.00,West,260,0.0,1.0,99,-99.99,,,-99.99,,2013-03-04 15:31:00,
2013-03-04 08:41:00,36.0,36.0,-100.00,West,260,0.0,1.0,99,-99.99,,,-99.99,,2013-03-04 15:41:00,
2013-03-04 08:51:00,36.0,36.0,-100.00,SW,230,0.0,1.0,99,-99.99,,,-99.99,,2013-03-04 15:51:00,
2013-03-04 09:02:00,39.0,39.0,-100.00,SW,220,1.0,2.0,99,-99.99,,,-99.99,,2013-03-04 16:02:00,
2013-03-04 09:11:00,41.0,41.0,-100.00,East,100,3.0,4.0,99,-99.99,,,-99.99,,2013-03-04 16:11:00,
2013-03-04 09:21:00,39.0,39.0,-100.00,SE,145,1.0,5.0,99,-99.99,,,-99.99,,2013-03-04 16:21:00,
2013-03-04 09:31:00,38.0,38.0,-100.00,SSW,210,6.0,9.0,99,-99.99,,,-99.99,,2013-03-04 16:31:00,
2013-03-04 09:41:00,37.0,37.0,-100.00,SSE,155,1.0,7.0,100,-99.99,,,-99.99,,2013-03-04 16:41:00,
2013-03-04 09:52:00,38.0,37.0,-100.00,East,95,1.0,6.0,98,-99.99,,,-99.99,,2013-03-04 16:52:00,
2013-03-04 10:01:00,40.0,38.0,-100.00,South,180,3.0,10.0,92,-99.99,,,-99.99,,2013-03-04 17:01:00,
2013-03-04 10:11:00,41.0,36.0,-100.00,SE,135,3.0,12.0,82,-99.99,,,-99.99,,2013-03-04 17:11:00,
2013-03-04 10:21:00,38.0,32.0,-100.00,SSW,210,12.0,22.0,80,-99.99,,,-99.99,,2013-03-04 17:21:00,
2013-03-04 10:31:00,35.0,31.0,-100.00,SW,215,9.0,21.0,87,-99.99,,,-99.99,,2013-03-04 17:31:00,
2013-03-04 10:42:00,35.0,32.0,-100.00,South,190,4.0,9.0,90,-99.99,,,-99.99,,2013-03-04 17:42:00,
2013-03-04 10:52:00,36.0,34.0,-100.00,South,185,4.0,11.0,93,-99.99,,,-99.99,,2013-03-04 17:52:00,
2013-03-04 11:01:00,38.0,37.0,-100.00,SE,140,4.0,13.0,93,-99.99,,,-99.99,,2013-03-04 18:01:00,
2013-03-04 11:11:00,40.0,36.0,-100.00,SW,235,9.0,13.0,87,-99.99,,,-99.99,,2013-03-04 18:11:00,
2013-03-04 11:21:00,41.0,36.0,-100.00,SW,215,6.0,16.0,80,-99.99,,,-99.99,,2013-03-04 18:21:00,
2013-03-04 11:32:00,42.0,33.0,-100.00,SW,225,12.0,20.0,70,-99.99,,,-99.99,,2013-03-04 18:32:00,
2013-03-04 11:42:00,44.0,33.0,-100.00,SW,225,9.0,16.0,67,-99.99,,,-99.99,,2013-03-04 18:42:00,
2013-03-04 11:52:00,45.0,33.0,-100.00,SW,235,9.0,16.0,62,-99.99,,,-99.99,,2013-03-04 18:52:00,
2013-03-04 12:01:00,45.0,32.0,-100.00,SW,225,7.0,14.0,60,-99.99,,,-99.99,,2013-03-04 19:01:00,
2013-03-04 12:11:00,44.0,30.0,-100.00,SW,230,7.0,12.0,58,-99.99,,,-99.99,,2013-03-04 19:11:00,
2013-03-04 12:21:00,42.0,28.0,-100.00,SSW,205,9.0,16.0,56,-99.99,,,-99.99,,2013-03-04 19:21:00,
2013-03-04 12:32:00,40.0,28.0,-100.00,SW,220,5.0,16.0,59,-99.99,,,-99.99,,2013-03-04 19:32:00,
2013-03-04 12:42:00,40.0,28.0,-100.00,SSW,205,6.0,14.0,60,-99.99,,,-99.99,,2013-03-04 19:42:00,
2013-03-04 12:51:00,39.0,27.0,-100.00,North,-999,-999.0,-999.0,62,-99.99,,,-99.99,,2013-03-04 19:51:00,
2013-03-04 13:01:00,39.0,27.0,-100.00,North,-999,-999.0,-999.0,62,-99.99,,,-99.99,,2013-03-04 20:01:00,
2013-03-04 13:11:00,39.0,26.0,-100.00,East,90,1.0,15.0,58,-99.99,,,-99.99,,2013-03-04 20:11:00,
2013-03-04 13:21:00,39.0,20.0,-100.00,NNE,30,4.0,9.0,46,-99.99,,,-99.99,,2013-03-04 20:21:00,
2013-03-04 13:31:00,40.0,19.0,-100.00,WNW,300,2.0,14.0,42,-99.99,,,-99.99,,2013-03-04 20:31:00,
2013-03-04 13:41:00,42.0,18.0,-100.00,NW,325,8.0,16.0,38,-99.99,,,-99.99,,2013-03-04 20:41:00,
2013-03-04 13:52:00,40.0,15.0,-100.00,NE,50,3.0,20.0,36,-99.99,,,-99.99,,2013-03-04 20:52:00,
2013-03-04 14:01:00,39.0,13.0,-100.00,West,260,3.0,12.0,34,-99.99,,,-99.99,,2013-03-04 21:01:00,
2013-03-04 14:11:00,40.0,13.0,-100.00,ESE,120,5.0,11.0,32,-99.99,,,-99.99,,2013-03-04 21:11:00,
2013-03-04 14:21:00,40.0,13.0,-100.00,South,190,2.0,6.0,32,-99.99,,,-99.99,,2013-03-04 21:21:00,
2013-03-04 14:32:00,40.0,13.0,-100.00,NW,315,4.0,8.0,32,-99.99,,,-99.99,,2013-03-04 21:32:00,
2013-03-04 14:42:00,38.0,11.0,-100.00,WNW,300,2.0,13.0,32,-99.99,,,-99.99,,2013-03-04 21:42:00,
2013-03-04 14:52:00,36.0,9.0,-100.00,NNE,30,4.0,17.0,32,-99.99,,,-99.99,,2013-03-04 21:52:00,
2013-03-04 15:01:00,36.0,9.0,-100.00,North,0,6.0,14.0,31,-99.99,,,-99.99,,2013-03-04 22:01:00,
2013-03-04 15:11:00,36.0,9.0,-100.00,ENE,60,3.0,11.0,31,-99.99,,,-99.99,,2013-03-04 22:11:00,
2013-03-04 15:21:00,38.0,10.0,-100.00,WSW,240,4.0,14.0,30,-99.99,,,-99.99,,2013-03-04 22:21:00,
2013-03-04 15:32:00,40.0,11.0,-100.00,SSW,195,1.0,9.0,29,-99.99,,,-99.99,,2013-03-04 22:32:00,
2013-03-04 15:42:00,40.0,10.0,-100.00,NNE,20,4.0,10.0,28,-99.99,,,-99.99,,2013-03-04 22:42:00,
2013-03-04 15:51:00,38.0,8.0,-100.00,NW,315,4.0,11.0,28,-99.99,,,-99.99,,2013-03-04 22:51:00,
2013-03-04 16:01:00,38.0,8.0,-100.00,West,280,2.0,14.0,28,-99.99,,,-99.99,,2013-03-04 23:01:00,
2013-03-04 16:11:00,37.0,7.0,-100.00,SSW,195,13.0,22.0,28,-99.99,,,-99.99,,2013-03-04 23:11:00,
2013-03-04 16:21:00,37.0,7.0,-100.00,South,185,8.0,22.0,28,-99.99,,,-99.99,,2013-03-04 23:21:00,
2013-03-04 16:32:00,35.0,6.0,-100.00,SSW,200,7.0,18.0,29,-99.99,,,-99.99,,2013-03-04 23:32:00,
2013-03-04 16:41:00,35.0,6.0,-100.00,SSW,200,7.0,18.0,29,-99.99,,,-99.99,,2013-03-04 23:41:00,
2013-03-04 16:52:00,34.0,6.0,-100.00,South,190,12.0,19.0,29,-99.99,,,-99.99,,2013-03-04 23:52:00,
2013-03-04 17:01:00,34.0,6.0,-100.00,WSW,240,3.0,18.0,30,-99.99,,,-99.99,,2013-03-05 00:01:00,
2013-03-04 17:11:00,34.0,6.0,-100.00,North,350,2.0,11.0,30,-99.99,,,-99.99,,2013-03-05 00:11:00,
2013-03-04 17:21:00,34.0,6.0,-100.00,East,95,2.0,12.0,30,-99.99,,,-99.99,,2013-03-05 00:21:00,
2013-03-04 17:32:00,34.0,7.0,-100.00,NW,305,1.0,6.0,32,-99.99,,,-99.99,,2013-03-05 00:32:00,
2013-03-04 17:41:00,33.0,7.0,-100.00,SSW,195,1.0,10.0,33,-99.99,,,-99.99,,2013-03-05 00:41:00,
2013-03-04 17:51:00,33.0,7.0,-100.00,SSE,150,2.0,7.0,34,-99.99,,,-99.99,,2013-03-05 00:51:00,
2013-03-04 18:01:00,32.0,7.0,-100.00,NW,320,2.0,6.0,34,-99.99,,,-99.99,,2013-03-05 01:01:00,
2013-03-04 18:11:00,31.0,7.0,-100.00,NNW,345,1.0,4.0,35,-99.99,,,-99.99,,2013-03-05 01:11:00,
2013-03-04 18:21:00,30.0,8.0,-100.00,North,0,1.0,3.0,39,-99.99,,,-99.99,,2013-03-05 01:21:00,
2013-03-04 18:32:00,29.0,9.0,-100.00,NW,305,3.0,4.0,41,-99.99,,,-99.99,,2013-03-05 01:32:00,
2013-03-04 18:41:00,28.0,9.0,-100.00,West,260,2.0,4.0,43,-99.99,,,-99.99,,2013-03-05 01:41:00,
2013-03-04 18:51:00,28.0,8.0,-100.00,North,355,1.0,4.0,43,-99.99,,,-99.99,,2013-03-05 01:51:00,
2013-03-04 19:01:00,28.0,9.0,-100.00,North,0,2.0,5.0,44,-99.99,,,-99.99,,2013-03-05 02:01:00,
2013-03-04 19:11:00,27.0,8.0,-100.00,North,0,0.0,6.0,43,-99.99,,,-99.99,,2013-03-05 02:11:00,
2013-03-04 19:21:00,27.0,7.0,-100.00,SSW,210,1.0,5.0,42,-99.99,,,-99.99,,2013-03-05 02:21:00,
2013-03-04 19:32:00,27.0,7.0,-100.00,ENE,60,4.0,6.0,41,-99.99,,,-99.99,,2013-03-05 02:32:00,
2013-03-04 19:41:00,26.0,7.0,-100.00,WNW,295,0.0,3.0,43,-99.99,,,-99.99,,2013-03-05 02:41:00,
2013-03-04 19:52:00,26.0,8.0,-100.00,WNW,295,0.0,2.0,46,-99.99,,,-99.99,,2013-03-05 02:52:00,
2013-03-04 20:01:00,25.0,8.0,-100.00,NNE,30,1.0,2.0,48,-99.99,,,-99.99,,2013-03-05 03:01:00,
2013-03-04 20:11:00,25.0,9.0,-100.00,NNE,25,2.0,4.0,49,-99.99,,,-99.99,,2013-03-05 03:11:00,
2013-03-04 20:21:00,24.0,9.0,-100.00,West,275,1.0,4.0,50,-99.99,,,-99.99,,2013-03-05 03:21:00,
2013-03-04 20:32:00,24.0,9.0,-100.00,NW,305,2.0,3.0,52,-99.99,,,-99.99,,2013-03-05 03:32:00,
2013-03-04 20:41:00,24.0,9.0,-100.00,North,355,1.0,2.0,53,-99.99,,,-99.99,,2013-03-05 03:41:00,
2013-03-04 20:51:00,23.0,10.0,-100.00,NNW,340,2.0,3.0,55,-99.99,,,-99.99,,2013-03-05 03:51:00,
2013-03-04 21:01:00,23.0,10.0,-100.00,North,0,2.0,4.0,56,-99.99,,,-99.99,,2013-03-05 04:01:00,
2013-03-04 21:11:00,23.0,10.0,-100.00,NW,320,2.0,4.0,57,-99.99,,,-99.99,,2013-03-05 04:11:00,
2013-03-04 21:21:00,22.0,10.0,-100.00,North,5,1.0,3.0,58,-99.99,,,-99.99,,2013-03-05 04:21:00,
2013-03-04 21:31:00,22.0,10.0,-100.00,NNW,335,1.0,3.0,58,-99.99,,,-99.99,,2013-03-05 04:31:00,
2013-03-04 21:41:00,21.0,10.0,-100.00,NNW,330,0.0,2.0,60,-99.99,,,-99.99,,2013-03-05 04:41:00,
2013-03-04 21:51:00,21.0,10.0,-100.00,North,350,2.0,3.0,62,-99.99,,,-99.99,,2013-03-05 04:51:00,
2013-03-04 22:01:00,21.0,10.0,-100.00,North,350,2.0,3.0,62,-99.99,,,-99.99,,2013-03-05 05:01:00,
2013-03-04 22:11:00,20.0,10.0,-100.00,North,0,0.0,2.0,63,-99.99,,,-99.99,,2013-03-05 05:11:00,
2013-03-04 22:22:00,20.0,10.0,-100.00,NNW,335,0.0,1.0,65,-99.99,,,-99.99,,2013-03-05 05:22:00,
2013-03-04 22:31:00,19.0,10.0,-100.00,North,10,2.0,2.0,67,-99.99,,,-99.99,,2013-03-05 05:31:00,
2013-03-04 22:41:00,19.0,11.0,-100.00,NNE,15,2.0,3.0,68,-99.99,,,-99.99,,2013-03-05 05:41:00,
2013-03-04 22:52:00,19.0,10.0,-100.00,NE,40,1.0,2.0,68,-99.99,,,-99.99,,2013-03-05 05:52:00,
2013-03-04 23:01:00,19.0,10.0,-100.00,NNE,20,0.0,1.0,69,-99.99,,,-99.99,,2013-03-05 06:01:00,
2013-03-04 23:11:00,18.0,10.0,-100.00,North,355,0.0,1.0,71,-99.99,,,-99.99,,2013-03-05 06:11:00,
2013-03-04 23:22:00,18.0,11.0,-100.00,North,350,0.0,2.0,72,-99.99,,,-99.99,,2013-03-05 06:22:00,
2013-03-04 23:31:00,18.0,11.0,-100.00,NNW,345,1.0,2.0,73,-99.99,,,-99.99,,2013-03-05 06:31:00,
2013-03-04 23:41:00,17.0,11.0,-100.00,North,5,2.0,2.0,73,-99.99,,,-99.99,,2013-03-05 06:41:00,
2013-03-04 23:52:00,17.0,11.0,-100.00,NNW,335,0.0,2.0,75,-99.99,,,-99.99,,2013-03-05 06:52:00,